EW9733 Weather Reports


Display with metric or nautical units.
time (UTC)temp
F
wind
direction
speed
MPH
gust
MPH
rain 1hr
in
rain 24hr
in
rain mn
in
humidity
%
barometer
mb
20260901214512 66 119 0.0 1.0 0.00 0.05 0.05 84 1017.1
20260901213011 67 119 0.0 0.0 0.00 0.05 0.05 84 1017.1
20260901211513 67 119 0.0 0.0 0.00 0.05 0.05 84 1017.0
20260901210010 67 119 0.0 0.0 0.00 0.05 0.05 83 1016.9
20260901204508 66 119 0.0 1.0 0.00 0.05 0.05 84 1016.8
20260901203017 67 119 0.0 2.0 0.00 0.05 0.05 84 1016.6
20260901201508 66 119 0.0 4.0 0.00 0.05 0.05 84 1016.5
20260901200020 67 117 0.0 1.0 0.00 0.05 0.05 85 1016.5
20260901194507 67 124 0.0 2.0 0.00 0.05 0.05 86 1016.5
20260901193007 66 123 0.0 4.0 0.00 0.05 0.05 85 1016.5
20260901191512 67 133 0.0 2.0 0.00 0.05 0.05 87 1016.4
20260901190017 67 132 0.0 3.0 0.01 0.05 0.05 87 1016.3
20260901184505 68 136 0.0 6.0 0.01 0.05 0.05 87 1016.3
20260901183013 68 121 0.0 3.0 0.01 0.05 0.05 87 1016.2
20260901181505 68 82 0.0 1.0 0.01 0.05 0.05 87 1016.1
20260901180003 68 82 0.0 0.0 0.00 0.04 0.04 86 1016.0
20260901174504 69 82 0.0 1.0 0.00 0.04 0.04 85 1015.9
20260901173003 70 96 0.0 3.0 0.00 0.04 0.04 86 1015.7
20260901171502 70 61 0.0 5.0 0.00 0.04 0.04 84 1016.0
20260901170104 70 46 1.0 5.0 0.00 0.04 0.04 82 1016.1
20260901164633 71 71 0.0 2.0 0.00 0.04 0.04 81 1016.0
20260901163100 71 89 0.0 5.0 0.01 0.04 0.04 82 1015.7
20260901161600 71 147 0.0 2.0 0.01 0.04 0.04 83 1016.0
20260901160100 71 101 0.0 5.0 0.01 0.04 0.04 84 1016.0
20260901154554 70 46 0.0 6.0 0.01 0.04 0.04 86 1016.1
20260901153051 70 98 1.0 3.0 0.00 0.03 0.03 89 1016.3
20260901151549 69 131 0.0 3.0 0.00 0.03 0.03 90 1016.2
20260901150045 68 47 0.0 3.0 0.00 0.03 0.03 90 1016.5
20260901144543 68 77 1.0 4.0 0.00 0.03 0.03 90 1016.6
20260901143045 68 52 0.0 3.0 0.01 0.03 0.03 91 1016.6
20260901141552 68 88 0.0 2.0 0.01 0.03 0.03 91 1016.6
20260901140043 67 137 0.0 0.0 0.03 0.03 0.03 91 1016.8
20260901134539 67 137 0.0 0.0 0.03 0.03 0.03 91 1016.7
20260901133041 67 137 0.0 0.0 0.02 0.02 0.02 91 1016.6
20260901131535 67 137 0.0 0.0 0.01 0.01 0.01 90 1016.8
20260901130031 66 137 0.0 0.0 0.00 0.00 0.00 90 1016.6
20260901124530 66 137 0.0 1.0 0.00 0.00 0.00 90 1016.5
20260901123029 66 137 0.0 0.0 0.00 0.00 0.00 90 1016.7
20260901121529 66 137 0.0 0.0 0.00 0.00 0.00 90 1016.5
20260901120028 66 137 0.0 0.0 0.00 0.00 0.00 90 1016.4
20260901114526 66 137 0.0 0.0 0.00 0.00 0.00 90 1016.4
20260901113026 66 137 0.0 0.0 0.00 0.00 0.00 90 1016.3
20260901111525 65 137 0.0 0.0 0.00 0.00 0.00 90 1016.2
20260901110036 65 137 0.0 0.0 0.00 0.00 0.00 90 1016.2
20260901104520 65 137 0.0 0.0 0.00 0.01 0.00 90 1016.1
20260901103020 65 137 0.0 0.0 0.00 0.01 0.00 90 1016.1
20260901101520 65 137 0.0 0.0 0.00 0.01 0.00 89 1015.9
20260901100017 65 137 0.0 1.0 0.00 0.01 0.00 89 1015.8
20260901094525 65 137 0.0 0.0 0.00 0.01 0.00 89 1015.8
20260901093017 65 137 0.0 0.0 0.00 0.01 0.00 89 1015.8
20260901091514 65 137 0.0 1.0 0.00 0.01 0.00 89 1015.9
20260901090014 65 137 0.0 1.0 0.00 0.01 0.00 89 1015.9
20260901084512 65 137 0.0 0.0 0.00 0.01 0.00 89 1015.9
20260901083012 66 137 0.0 0.0 0.00 0.01 0.00 89 1016.1
20260901081512 66 137 0.0 0.0 0.00 0.01 0.00 89 1016.3
20260901080008 66 137 0.0 0.0 0.00 0.01 0.00 89 1016.4
20260901074507 66 137 0.0 1.0 0.00 0.01 0.00 89 1016.4
20260901073015 66 136 0.0 1.0 0.00 0.01 0.00 88 1016.4
20260901071505 66 136 0.0 0.0 0.00 0.01 0.00 88 1016.6
20260901070007 65 136 0.0 1.0 0.00 0.01 0.00 88 1016.5
20260901064509 65 136 0.0 1.0 0.00 0.01 0.00 88 1016.7
20260901063002 66 136 0.0 1.0 0.00 0.01 0.00 87 1016.7
20260901061502 66 136 0.0 1.0 0.00 0.01 0.00 87 1016.7
20260901060001 66 136 0.0 2.0 0.00 0.01 0.00 87 1016.8
20260901054602 66 136 0.0 2.0 0.00 0.01 0.00 86 1016.8
20260901054502 66 136 0.0 2.0 0.00 0.01 0.00 86 1016.7
20260901053120 66 135 0.0 1.0 0.00 0.01 0.00 86 1016.7
20260901051600 66 128 0.0 1.0 0.00 0.01 0.00 86 1016.9
20260901050057 66 127 0.0 3.0 0.00 0.01 0.00 85 1017.0
20260901044555 66 115 0.0 1.0 0.00 0.01 0.00 85 1016.9
20260901043117 66 114 0.0 1.0 0.00 0.01 0.00 84 1016.9
20260901041605 66 116 0.0 1.0 0.00 0.01 0.00 84 1017.1
20260901040101 66 142 0.0 1.0 0.00 0.01 0.00 84 1017.1
20260901034602 66 142 0.0 2.0 0.00 0.09 0.01 84 1017.0
20260901033102 66 141 0.0 2.0 0.00 0.09 0.01 84 1017.0
20260901031550 66 144 0.0 4.0 0.00 0.09 0.01 84 1017.1
20260901030049 66 161 0.0 4.0 0.00 0.09 0.01 84 1017.1
20260901024554 66 130 0.0 4.0 0.00 0.09 0.01 83 1017.0
20260901023047 66 161 0.0 1.0 0.00 0.09 0.01 83 1017.1
20260901021547 67 51 0.0 2.0 0.00 0.09 0.01 83 1017.2
20260901020047 67 155 0.0 5.0 0.00 0.09 0.01 84 1017.2
20260901014546 67 140 0.0 3.0 0.00 0.09 0.01 84 1017.3
20260901013046 67 151 0.0 5.0 0.00 0.09 0.01 84 1017.3
20260901011554 67 163 0.0 3.0 0.00 0.09 0.01 83 1017.2
20260901010046 68 135 1.0 4.0 0.00 0.09 0.01 82 1017.2
20260901004544 68 149 0.0 5.0 0.00 0.09 0.01 81 1017.2
20260901003053 68 146 0.0 4.0 0.00 0.09 0.01 80 1017.1
20260901001544 68 122 0.0 3.0 0.00 0.09 0.01 79 1017.1
20260901000044 68 160 1.0 7.0 0.00 0.09 0.01 77 1017.1
20260831234542 68 167 0.0 7.0 0.00 0.09 0.01 75 1017.1
20260831233041 68 165 0.0 4.0 0.00 0.09 0.01 75 1017.2
20260831231541 69 178 0.0 6.0 0.00 0.09 0.01 74 1017.2
20260831230041 69 173 2.0 6.0 0.00 0.09 0.01 73 1017.2
20260831224540 70 171 0.0 4.0 0.00 0.09 0.01 72 1017.2
20260831223042 70 90 0.0 7.0 0.00 0.09 0.01 71 1017.3
20260831221542 70 156 0.0 5.0 0.00 0.09 0.01 71 1017.3
20260831220038 70 162 2.0 5.0 0.00 0.09 0.01 70 1017.3